Guymon, OK

4:29 AM CDT on July 25, 2017 (GMT -0500)
Guymon Municipal

Weather History for KGUY - December, 2014

Change the Weather History Date:

Thursday, December 25, 2014

  Actual Average Record
Temperature  
Mean Temperature 46 °F 34 °F  
Max Temperature 60 °F 47 °F 73 °F (2005)
Min Temperature 31 °F 21 °F -1 °F (2002)
Degree Days  
Heating Degree Days 19 31  
Month to date heating degree days 570 739  
Since 1 July heating degree days 1377 1630  
Cooling Degree Days 0 0  
Month to date cooling degree days 0 0  
Year to date cooling degree days 1706 1482  
Moisture  
Dew Point 18 °F    
Average Humidity 36    
Maximum Humidity 56    
Minimum Humidity 16    
Precipitation  
Precipitation 0.00 in 0.02 in 0.14 in (2016)
Month to date precipitation 0.77 0.53  
Year to date precipitation 13.08 19.19  
Snow  
Snow 0.00 in - - ()
Month to date snowfall T  
Since 1 July snowfall 3.0  
Snow Depth 0.00 in    
Sea Level Pressure  
Sea Level Pressure 29.53 in    
Wind  
Wind Speed 17 mph (SSW)    
Max Wind Speed 30 mph    
Max Gust Speed 38 mph    
Visibility 10 miles    
Events      
T = Trace of Precipitation, MM = Missing Value Source: NWS Daily Summary

Daily Weather History Graph

Daily Weather History Graph

Search for Another Location

Airport or City:

Trip Planner

Search our weather history database for the weather conditions in past years. The results will help you decide how hot, cold, wet, or windy it might be!

Date:

Astronomy

Dec. 25, 2014 Rise Set
Actual Time 7:56 AM CST 5:35 PM CST
Civil Twilight 7:27 AM CST 6:04 PM CST
Nautical Twilight 6:55 AM CST 6:37 PM CST
Astronomical Twilight 6:23 AM CST 7:08 PM CST
Moon 10:36 AM CST 10:05 PM CST
Length of Visible Light 10h 37m
Length of Day
9h 39m
Waxing Crescent, 18% of the Moon is Illuminated
Dec 25
Waxing Crescent
Dec 28
First Quarter
Jan 4
Full
Jan 13
Last Quarter
Jan 20
New

Hourly Weather History & Observations

Time (CST) Temp. Windchill Dew Point Humidity Pressure Visibility Wind Dir Wind Speed Gust Speed Precip Events Conditions
12:53 AM 34.0 °F 26.6 °F 18.0 °F 52% 29.58 in 10.0 mi SSW 9.2 mph - N/A   Clear
1:53 AM 35.1 °F 26.9 °F 19.0 °F 52% 29.54 in 10.0 mi SSW 11.5 mph - N/A   Clear
2:53 AM 37.9 °F 28.2 °F 19.0 °F 47% 29.50 in 10.0 mi SSW 18.4 mph - N/A   Clear
3:53 AM 37.9 °F 27.9 °F 19.0 °F 47% 29.47 in 10.0 mi SSW 19.6 mph - N/A   Clear
4:53 AM 39.0 °F 31.0 °F 19.9 °F 46% 29.46 in 10.0 mi SSW 13.8 mph 23.0 mph N/A   Clear
5:53 AM 41.0 °F 33.1 °F 19.9 °F 43% 29.47 in 10.0 mi SW 15.0 mph - N/A   Clear
6:53 AM 44.1 °F 35.9 °F 19.9 °F 38% 29.47 in 10.0 mi WSW 19.6 mph 25.3 mph N/A   Clear
7:53 AM 43.0 °F 34.0 °F 19.0 °F 38% 29.49 in 10.0 mi SW 21.9 mph - N/A   Clear
8:53 AM 44.1 °F 35.0 °F 18.0 °F 35% 29.50 in 10.0 mi SW 24.2 mph 29.9 mph N/A   Clear
9:53 AM 46.0 °F 38.8 °F 18.0 °F 33% 29.52 in 10.0 mi SW 18.4 mph 26.5 mph N/A   Clear
10:53 AM 50.0 °F - 19.0 °F 29% 29.51 in 10.0 mi SW 18.4 mph - N/A   Clear
11:53 AM 57.0 °F - 19.9 °F 24% 29.49 in 10.0 mi SW 20.7 mph 28.8 mph N/A   Clear
12:53 PM 57.0 °F - 19.0 °F 23% 29.49 in 10.0 mi SW 21.9 mph 29.9 mph N/A   Clear
1:53 PM 55.9 °F - 18.0 °F 23% 29.47 in 10.0 mi SSW 25.3 mph 32.2 mph N/A   Clear
2:53 PM 57.9 °F - 14.0 °F 18% 29.46 in 10.0 mi SW 24.2 mph 31.1 mph N/A   Clear
3:53 PM 60.1 °F - 14.0 °F 16% 29.48 in 10.0 mi SW 23.0 mph 32.2 mph N/A   Clear
4:53 PM 59.0 °F - 14.0 °F 17% 29.50 in 10.0 mi SW 17.3 mph - N/A   Clear
5:53 PM 50.0 °F - 16.0 °F 26% 29.54 in 10.0 mi SSW 10.4 mph - N/A   Clear
6:53 PM 46.9 °F - 17.1 °F 30% 29.57 in 10.0 mi SSW 15.0 mph - N/A   Clear
7:53 PM 42.1 °F 35.2 °F 18.0 °F 38% 29.60 in 10.0 mi SSW 12.7 mph - N/A   Clear
8:53 PM 39.9 °F 32.5 °F 19.9 °F 45% 29.62 in 10.0 mi SSW 12.7 mph - N/A   Clear
9:53 PM 37.9 °F 31.5 °F 19.0 °F 47% 29.63 in 10.0 mi SSW 9.2 mph - N/A   Clear
10:53 PM 33.1 °F 26.9 °F 19.0 °F 56% 29.65 in 10.0 mi SSW 6.9 mph - N/A   Clear
11:53 PM 30.9 °F 24.3 °F 19.0 °F 61% 29.70 in 10.0 mi Variable 6.9 mph 16.1 mph N/A   Clear